Find Local Weather

World > North America > United States > Colorado

Harts Basin, Colorado Regional Weather

Lat: 38.83N, Lon: 107.95W
Wx Zone: COZ011
Warning FLW WEATHER ALERT - (More Info. Click Here) Warning
Feedback
Expires:201808171200;;198132
ASUS45 KBOU 171110
RWRCO 

WEATHER ROUNDUP FOR COLORADO
NATIONAL WEATHER SERVICE DENVER/BOULDER CO
500 AM MDT FRI AUG 17 2018

NOTE: "FAIR" INDICATES FEW OR NO CLOUDS BELOW 12000 FEET WITH NO
SIGNIFICANT WEATHER AND/OR OBSTRUCTIONS TO VISIBILITY.


COZ006>008-011-171200-
...WEST CENTRAL VALLEYS...
  
CITY           SKY/WX    TMP DP  RH WIND       PRES   REMARKS
GRAND JUNCTION MOCLDY    70  51  51 S9        30.25S                  
MONTROSE       FAIR      60  48  64 W3        30.35R                  
EAGLE          FAIR      52  43  71 CALM      30.42R                  
RIFLE          FAIR      56  49  77 CALM      30.32R                  
DELTA          LGT RAIN  64  51  62 E7        30.31R                  
NUCLA          FAIR      68  46  45 NW5         N/A                   
$$


SKY/WX - Weather  TMP - Temperature  DP - Dewpoint  RH - Relative Humidity
WIND - Wind Direction/Speed PRES - Barometric Pressure